This demonstration page uses our WeatherBlox Daily Observations layout. Learn more.

Left ArrowRight Arrow

Hourly Observations for June 29, 2015

Temp ( °F °C ) Dew Point ( °F °C ) Humidity (%) Winds ( mph kmh ) Pressure ( in mb ) Visibility ( mi km ) Precip ( " mm )
12:59 am 00:59 Partly Cloudy 66 18.9 62 16.7 87 87 Calm 29.92 1013 10 16 0.00 0.00
1:59 am 01:59 Mostly Clear 65 18.3 61 16.1 87 87 Calm 29.93 1014 10 16 0.00 0.00
2:59 am 02:59 Mostly Clear 64 17.8 60 15.6 87 87 Calm 29.94 1014 10 16 0.00 0.00
3:59 am 03:59 Clear 63 17.2 60 15.6 90 90 Calm 29.95 1014 10 16 0.00 0.00
4:59 am 04:59 Mostly Clear 62 16.7 59 15 90 90 Calm 29.96 1015 10 16 0.00 0.00
5:59 am 05:59 Mostly Sunny 78 25.7 75 23.7 89 89 Calm 29.97 1015 10 16 0.00 0.00
6:59 am 06:59 Partly Cloudy 67 19.4 63 17.2 87 87 Calm 29.99 1016 10 16 0.00 0.00
7:59 am 07:59 Partly Cloudy 73 22.8 59 15 62 62 N 8 13 30.01 1016 10 16 0.00 0.00
8:59 am 08:59 Partly Cloudy 75 23.9 55 12.8 50 50 N 12 19 30.02 1017 10 16 0.00 0.00
9:59 am 09:59 Partly Cloudy 76 24.4 53 11.7 45 45 N 9 15 30.03 1017 10 16 0.00 0.00
10:59 am 10:59 Partly Cloudy 77 25 53 11.7 43 43 NE 7 11 30.03 1017 10 16 0.00 0.00
11:59 am 11:59 Partly Cloudy 70 21.1 60 15.4 70 70 NNE 8 13 30.00 1016 10 16 0.00 0.00
12:59 pm 12:59 Partly Cloudy 79 26.1 57 13.9 47 47 NE 8 13 30.01 1016 10 16 0.00 0.00
1:59 pm 13:59 Partly Cloudy 80 26.7 56 13.3 44 44 VRB 6 9 30.00 1016 10 16 0.00 0.00
2:59 pm 14:59 Partly Cloudy 81 27.2 57 13.9 44 44 NE 9 15 29.98 1015 10 16 0.00 0.00
3:59 pm 15:59 Partly Cloudy 79 26.1 58 14.4 49 49 E 8 13 29.98 1015 10 16 0.00 0.00
4:59 pm 16:59 Partly Cloudy 80 26.7 61 16.1 52 52 NE 12 19 29.97 1015 10 16 0.00 0.00
5:59 pm 17:59 Mostly Sunny 79 26.1 62 16.7 56 56 E 10 17 29.96 1014 10 16 0.00 0.00
6:59 pm 18:59 Mostly Sunny 80 26.7 64 17.8 58 58 SSE 7 11 29.95 1014 10 16 0.00 0.00
7:59 pm 19:59 Partly Cloudy 77 25 64 17.8 64 64 SE 7 11 29.96 1015 10 16 0.00 0.00
8:59 pm 20:59 Mostly Clear 81 27.2 72 22.2 74 74 SSE 7 11 29.90 1013 10 16 0.00 0.00
9:59 pm 21:59 Partly Cloudy 75 23.9 66 18.9 74 74 SSE 5 7 29.98 1015 10 16 0.00 0.00
10:59 pm 22:59 Mostly Clear 74 23.3 67 19.4 79 79 SSE 7 11 29.98 1015 10 16 0.00 0.00
11:59 pm 23:59 Mostly Clear 74 23.3 68 20 82 82 SE 7 11 29.98 1015 10 16 0.00 0.00

Powered by AerisWeather